Погода в Бирске

Погода в Бирске : погода сейчас, прогноз погоды и архив. Всё, что Вы хотите узнать о погоде в Бирске!

Хотите узнать прогноз погоды в Бирске? Тогда Вам сюда: Погода в Бирске

Поиск расширенной информации на нашем сайте:

Другие новости

Новости СМИ2

Главная страница сайта

Новости сайта

03.07.2017

Напоминаем, что на нашем специализированном сайте Метеоцентр.Азия вы можете получить высокодетализированные автоматические прогнозы погоды по пунктам России, СНГ и мира в авиационном формате (включающие направление и скорость ветра, видимость, явления погоды, количество и форму облачности, нижнюю и верхнюю границу облачности).

Рекомендуем: Английский язык в Одинцово

Погода в Бирске - сегодня

Время (UTC), дата Ветер
(°,м/с) 
Видим.   Явления Облачность Т
(°С)
Тd
(°С)
f(%) Тe
(°С)
Pmin
(гПа)
dP
(гПа)
Po
(мм)
O2
(г/м3)
Тmin Tmax R s Состояние
почвы
18 22.07.17 270 (З) 10 км    ясно 
+17.7 +11.5 67 +22  1011.4  742  279           
21 22.07.17 270 (З) 10 км    ясно 
+15.3 +11.6 79 +20  1011.6  0.1  742  281           
00 23.07.17 250 (З) 10 км    ясно 
+14.1 +11.6 85 +19  1011.8  0.1  742  282           
03 23.07.17 250 (З) 20000 м    ясно 
+16.7 +12.2 75 +22  1011.9  0.3  743  280  +13.6        сухая 
06 23.07.17 280 (З) 20000 м    8/8 600 м 
[Cu med, cong]
+20.6 +12.2 59 +25  1011.7  0.1  743  276           
09 23.07.17 260 (З) 20000 м    9/8 600 м верхняя 
[Cu med, cong|Ci fib]
+22.1 +10.5 48 +24  1011.3  -0.4  742  275           
12 23.07.17 210 (ЮЗ) 20000 м    9/8 600 м верхняя 
[Cu med, cong|Ci fib]
+22.9 +10.6 46 +25  1010.7  -0.5  742  274           
15 23.07.17 230 (ЮЗ) 20000 м    6/4 600 м средняя 
[Cu med, cong|Ac trans]
+22.1 +10.8 49 +25  1010  -0.7  741  274    +23.9       
18 23.07.17 160 (Ю) 10 км    4/3 600 м кучево-дожд., средняя 
[Cb cap|Ac trans]
+18.7 +11.3 62 +23  1009.6  -0.6  741  277           
21 23.07.17 150 (ЮВ) 10 км    ясно 
+18 +11.9 67 +23  1008  -1.6  740  277           
00 24.07.17 160 (Ю) 20000 м    9/8 600 м кучево-дожд., средняя 
[Cb cap|Ac lent]
+18.5 +11.9 65 +23  1006.3  -1.6  739  276           
03 24.07.17 190 (Ю) 20000 м    9/9 600 м кучево-дожд. 
[Cb cap]
+17.8 +14.1 79 +26  1006.1  -0.2  738  276  +17.6        сухая 
06 24.07.17 210 (ЮЗ) 20000 м  {ливн. осадки}  10/10 600 м кучево-дожд. 
[Cb cap]
+18.2 +16.2 88 +30  1005.9  0.1  738  275           
09 24.07.17 280 (З) 20000 м    8/8 600 м кучево-дожд. 
[Cb cap]
+19.9 +12.3 62 +26  1006.7  0.8  739  275           
12 24.07.17 270 (З) 20000 м    8/8 600 м 
[Cu med, cong]
+21.7 +11.1 51 +25  1006.9  0.4  739  274           
15 24.07.17 260 (З) 20000 м    1/0 средняя 
[Ac trans]
+20.3 +9.6 50 +21  1007  0.1  739  276    +21.8  0.3     
18 24.07.17 210 (ЮЗ) 10 км    3/0 средняя 
[Ac cast]
+16.8 +10.3 65 +20  1007.3  739  279           
21 24.07.17 210 (ЮЗ) 10 км    ясно 
+14.5 +10.2 75 +17  1007  -0.4  739  281           
00 25.07.17 200 (Ю) 20000 м    3/0 верхняя 
[Ci fib]
+12.9 +9.7 81 +14  1006.5  -0.6  738  282           
03 25.07.17 210 (ЮЗ) 20000 м    9/3 600 м кучево-дожд., средняя, верхняя 
[Cb cap|Ac trans|Ci sp]
+15.1 +10.3 73 +17  1005.7  -0.6  738  280  +12.9        сухая 
06 25.07.17 220 (ЮЗ) 20000 м    9/6 600 м кучево-дожд., средняя 
[Cb cap|Ac trans]
+18.2 +10.9 62 +22  1004.6  -0.9  737  276           
09 25.07.17 240 (ЮЗ) 20000 м  в посл. час ливневой дождь  9/9 600 м кучево-дожд. 
[Cb cap]
+18 +11.7 67 +23  1004.6  737  276           
12 25.07.17 240 (ЮЗ) 20000 м  в посл. час ливневой дождь  9/9 600 м кучево-дожд. 
[Cb cap]
+17.7 +13.8 78 +25  1004.7  0.1  737  276           
15 25.07.17 250 (З) 3{10}  20000 м  {ливн. осадки}  8/8 600 м кучево-дожд. 
[Cb cap]
+17.2 +13.4 78 +24  1004.6  0.1  737  277    +19.1  0.3     
18 25.07.17 230 (ЮЗ) 10 км  {ливн. осадки}  3/0 средняя 
[Ac lent]
+15.1 +13.1 88 +22  1005.7  0.8  738  279           
Время (UTC), дата Ветер
(°,м/с) 
Видим.   Явления Облачность Т
(°С)
Тd
(°С)
f(%) Тe
(°С)
Pmin
(гПа)
dP
(гПа)
Po
(мм)
O2
(г/м3)
Тmin Tmax R s Состояние
почвы

Для получения пояснительной информации подведите курсор к названию столбца.

ПОГОДА в Бирске - архив

Всё, что Вы хотите узнать о погоде в Бирске - удобно и подробно!

Выберите нужную дату (начиная с 1 января 2015* года) и нажмите кнопку "Найти".
Будут отображены архивные сводки погоды по пункту Бирск, начиная с указанной даты.


Отображать данные в формате CSV (для использования в таблицах Excel)


Внимание! Наш архив погоды предназначен исключительно для личного некоммерческого использования в познавательных целях. Если Вам необходимы официальные справки о состоянии погоды (для производственных, юридических, коммерческих и т.п. целей), обращайтесь в органы Росгидромета.

*Примечание: данная дата относится к архиву по метеостанциям СССР (Россия, СНГ, Балтия).
Архив по метеостанциям Зарубежной Европы и Азии (кроме Китая) хранится 10 дней, по другим регионам земного шара (Китай, Африка, Америка, Австралия, Океания) - 1 день.

Бирск - район местоположения метеостанции


Название, широта, долгота, высота метеостанции:
Бирск 55.4°ш. 55.5°д. 186 м над ур. моря [Российская Федерация]

Дополнительная информация

В oтличие oт бoльшинства пoгoдных сайтoв мы публикуем пoдрoбную метеoинфoрмацию в детальнoм прoфессиoнальнoм фoрмате.

Характеристики температуры и влажнoсти вoздуха измеряются на высoте 2 м в тени вдали oт зданий и деревьев.
Скoрoсть ветра измеряется на высoте 10 м (на урoвне рoста челoвека скoрoсть ветра ниже в 1.5-2 раза). Если метеoстанция нахoдится в гoрoде или в лесу, тo скoрoсть ветра занижена на 2-4 м/с пo сравнению с oткрытым местoм. Скoрoсть ветра над акватoриями крупных рек и oзёр, а также на вершинах хoлмoв на 2-5 м/с выше, чем в oбычных услoвиях.
Атмoсфернoе давление в разных тoчках местнoсти мoжет значительнo oтличаться oт давления на метеoстанции, в зависимoсти oт услoвий рельефа (при пoдъёме на 10 м давление пoнижается примернo на 1 мм рт.ст.).